SCP
0 0 0 0 0 0 0 0 0 0 0 0 0 0 0 0 0 0 0 0 0 0 0 0 0 0 0 0 0 0 0 0 0 0 0 0 0 0 0 0 0 0 0
0 0 0 0 0 0 0 0 0 0 0 0 0 0 0 0 0 0 0 0 0 0 0 0 0 0 0 0 0 0 0 0 0 0 0 0 0 0 0 0 0 0 0
0 0 0 0 0 0 0 0 0 0 0 0 0 0 0 0 0 0 0 0 0 0 0 0 0 0 0 0 0 0 0 0 0 0 0 0 0 0 0 0 0 0 0
0 0 0 0 0 0 0 0 0 0 0 0 0 0 0 0 0 0 0 -0 0 -0 -0 0 0 0 0 0 0 0 0 0 0 0 -0 0 0 0 0 0 0 0 0
0 0 0 0 0 0 0 0 0 0 0 0 0 0 0 0 0 0 0 0 0 0 -0 0 0 0 0 0 0 0 0 0 0 0 0 0 0 0 0 0 0 0 0
0 0 0 0 0 0 0 0 0 0 0 0 0 0 0 0 0 0 0 0 0 0 0 0 0 0 0 0 0 0 0 0 0 0 0 0 0 0 0 0 0 0 0
0 0 0 0 0 0 0 0 0 0 0 0 0 0 0 0 0 0 0 -0 0 0 0 0 -0 0 0 0 0 0 0 0 0 0 0 0 0 0 0 0 0 0 0
0 0 0 0 0 0 0 0 0 0 0 0 0 0 0 0 0 -0 0 0 0 0 0 0 -0 0 0 0 0 0 0 0 0 0 0 0 0 0 0 0 0 0 0
0 0 0 0 0 0 0 0 0 0 0 0 0 0 0 0 0 0 -0 -0 0 0 0 0 0 0 0 0 0 0 0 0 0 0 0 0 0 0 0 0 1 0 1
0 0 0 0 0 0 0 0 0 0 0 0 0 0 0 0 0 0 0 0 0 -0 0 -0 -0 -0 0 0 0 0 0 0 0 0 0 0 0 0 0 0 0 0 0
0 0 0 0 0 0 0 0 0 0 0 0 0 0 0 0 0 0 0 0 0 0 0 0 0 0 0 0 0 0 0 0 0 0 0 0 0 0 0 0 0 0 1
0 0 0 0 0 0 0 0 0 0 0 0 0 0 0 0 0 0 0 0 0 0 0 0 0 0 0 0 0 0 0 0 0 0 0 0 0 0 0 0 0 0 0
0 0 0 0 0 0 0 0 0 0 0 0 0 0 0 0 0 0 0 0 0 0 0 0 0 0 0 0 0 -0 -0 0 0 0 0 0 0 0 0 0 0 0 0
0 0 0 0 0 0 0 0 0 0 0 0 0 0 0 0 0 0 0 0 0 0 0 0 0 0 -0 0 0 -0 0 0 0 0 0 0 0 0 0 0 0 0 0
0 0 0 0 0 0 0 0 0 0 0 0 0 0 0 0 0 0 0 0 0 0 0 0 0 -0 0 0 0 0 0 0 0 0 0 0 0 0 0 0 0 0 0
0 0 0 0 0 0 0 0 0 0 0 0 0 0 0 0 0 0 0 0 0 0 0 0 0 0 0 0 0 0 0 0 0 0 0 0 0 0 0 0 0 0 0
0 0 0 0 0 0 0 0 0 0 0 0 0 0 0 0 0 0 0 0 0 0 0 0 0 0 0 0 0 0 0 0 0 0 0 0 0 0 0 0 0 0 0
0 0 0 0 0 0 0 0 0 0 0 0 0 0 0 0 0 0 0 0 0 0 0 0 0 0 0 0 0 0 0 0 0 0 0 0 0 0 0 0 0 0 0
0 0 0 0 0 0 0 0 0 0 0 0 0 0 0 0 0 0 0 0 0 0 0 0 0 0 0 0 0 0 0 0 0 0 0 0 0 0 0 0 0 0 -0
0 0 0 0 0 0 0 0 0 0 0 0 0 0 0 0 0 0 0 0 0 0 0 0 0 0 0 0 0 0 0 0 0 0 0 0 0 0 0 0 0 0 0
0 0 0 0 0 0 0 0 0 0 0 0 -0 -0 0 0 0 0 0 0 0 0 0 0 0 0 0 0 0 0 0 0 0 0 0 0 0 0 0 0 0 0 0
0 0 0 0 0 0 0 0 0 0 0 -0 -0 -0 0 0 0 0 0 0 0 0 0 0 0 0 0 0 0 0 0 0 0 0 0 0 0 0 0 0 0 -0 0
0 0 0 0 0 0 0 0 0 0 0 -0 0 0 0 0 0 0 0 0 0 0 0 0 0 0 0 0 0 0 0 0 0 0 0 0 0 0 0 0 0 0 0
-0 0 0 0 0 0 0 0 0 0 0 0 0 0 0 0 0 0 0 0 0 0 0 0 0 0 0 0 0 0 0 0 0 0 0 0 0 0 0 0 0 0 0
0 0 0 0 -0 0 0 0 0 0 -0 0 0 0 0 0 0 0 0 0 0 0 0 0 0 0 0 0 0 0 0 0 0 0 0 0 0 0 0 0 0 0 0
0 0 0 0 0 0 0 0 0 0 0 0 0 0 0 0 0 0 0 0 0 0 0 0 0 0 0 0 0 0 0 0 0 0 0 0 0 0 0 0 0 0 0
Wind_Speed_500mb
20 13 13 19 12 9 12 12 10 3 4 3 5 5 14 8 3 4 5 9 16 15 17 8 3 3 6 8 11 15 16 17 17 17 18 20 22 24 24 25 26 26 24
23 19 22 21 16 14 18 14 8 8 7 4 8 15 10 3 8 7 4 9 13 14 16 14 13 9 6 6 8 12 13 13 16 17 21 23 25 26 25 26 27 28 26
25 24 29 25 23 24 19 12 7 9 6 5 3 8 4 3 7 4 9 11 15 14 13 13 9 8 9 10 9 11 11 14 15 17 23 24 24 24 25 27 26 30 29
28 33 30 30 27 21 14 8 11 11 13 8 10 9 3 5 5 6 4 9 12 11 20 15 6 6 10 11 11 13 14 15 12 14 20 23 27 24 26 28 28 28 31
37 39 32 28 24 17 12 8 9 12 18 16 9 5 3 6 7 10 15 16 7 10 20 16 12 11 11 16 20 20 19 17 16 17 20 19 22 26 28 26 26 24 28
40 35 33 29 24 16 13 12 10 13 18 12 15 10 10 12 11 18 21 18 16 15 18 16 21 11 14 18 23 24 22 21 22 21 16 13 18 23 29 33 32 30 29
40 36 37 33 26 19 15 12 10 9 22 14 13 10 8 7 7 14 16 21 25 21 30 28 21 19 23 22 25 25 28 29 29 26 24 15 17 27 29 33 37 40 34
42 41 42 34 27 21 18 18 16 12 16 21 19 15 11 17 13 8 11 9 10 17 21 31 33 23 30 29 25 27 33 38 38 36 30 27 26 26 29 38 37 42 42
44 47 44 37 30 24 21 17 17 15 13 11 13 15 8 10 16 15 8 4 4 5 10 19 31 30 28 34 28 30 39 47 52 49 40 33 32 31 33 35 36 37 47
44 50 43 40 33 31 25 19 17 14 13 11 10 11 12 12 11 12 13 5 4 3 6 12 22 28 29 31 35 40 47 56 60 51 47 41 31 28 32 35 37 39 37
41 49 47 43 37 32 28 23 18 16 10 9 8 8 9 10 10 11 19 9 3 7 8 9 19 19 20 28 37 43 52 59 49 47 44 40 38 34 30 30 33 36 40
47 54 53 47 40 37 33 27 22 19 16 11 9 10 11 12 9 9 7 7 8 2 6 7 6 8 16 25 35 48 54 49 46 41 45 38 40 40 37 36 31 34 35
60 63 58 52 45 42 36 34 28 23 20 16 12 9 9 9 9 9 7 6 7 5 7 5 2 10 17 28 41 47 40 39 45 46 47 47 43 43 43 43 40 35 35
63 61 64 61 57 52 45 41 37 29 24 20 18 11 7 4 2 5 6 6 7 6 12 14 15 18 33 39 38 32 35 36 40 48 52 55 53 47 46 48 48 39 34
62 58 57 57 58 57 57 50 45 36 29 26 22 14 10 6 3 8 6 7 9 7 12 11 16 25 28 29 27 31 35 31 34 45 56 63 64 59 57 54 57 52 35
64 62 61 56 68 70 62 57 49 44 37 33 28 20 17 11 6 7 10 6 6 10 15 20 23 25 26 28 27 33 32 39 40 49 57 65 60 58 56 54 51 40 28
59 78 72 69 73 70 68 62 56 51 44 39 35 29 25 19 11 2 3 7 10 13 24 29 26 28 28 32 30 31 32 33 42 53 55 52 50 52 54 52 49 37 18
74 73 78 78 76 74 73 71 66 60 52 45 39 38 33 26 17 12 6 10 16 20 24 28 27 28 29 31 32 32 35 40 45 45 45 47 50 54 55 42 45 27 20
87 81 91 88 77 74 79 78 73 68 59 52 44 37 38 33 27 18 12 12 17 24 29 29 30 29 29 34 34 32 31 33 35 41 39 44 49 54 50 36 38 18 15
99 95 94 96 86 75 76 80 79 72 66 61 56 49 39 42 30 23 17 14 20 26 29 26 29 29 32 36 40 40 36 37 38 39 37 41 40 45 41 33 30 18 9
85 108 91 97 82 81 77 79 80 66 59 73 65 59 46 40 36 29 23 19 23 27 28 27 29 34 35 38 42 44 45 45 43 42 47 35 38 42 40 31 23 15 6
73 105 108 111 93 89 83 74 76 79 85 81 71 64 55 43 40 35 32 26 28 28 29 33 37 40 42 40 41 42 44 49 53 43 51 38 35 38 41 33 26 8 8
53 61 88 86 84 77 80 81 87 97 88 72 76 69 61 51 44 44 40 34 30 29 29 34 41 42 45 42 41 42 43 46 49 46 41 46 31 33 42 34 24 12 16
54 56 80 87 81 101 91 88 84 95 88 67 74 73 64 54 49 51 43 36 35 32 31 36 41 42 44 43 43 46 48 46 42 29 31 36 34 36 44 44 22 9 12
56 67 80 92 89 91 85 89 93 92 78 66 62 69 68 60 53 52 47 41 39 35 36 41 44 46 43 42 44 46 41 39 35 28 25 31 36 36 36 37 16 8 12
56 56 57 64 63 83 89 94 90 89 81 67 61 65 68 65 53 52 50 45 42 37 40 41 42 41 32 30 29 31 27 23 25 36 26 37 36 38 25 18 33 25 16
Wind_Direction_500mb
174 170 199 193 216 275 306 311 324 121 203 123 350 207 224 247 319 103 40 15 342 16 46 43 350 305 287 294 292 292 292 293 294 293 292 295 300 306 311 315 313 315 317
190 200 203 195 213 253 267 261 225 148 147 124 76 141 162 212 261 201 251 313 348 5 37 54 56 46 7 329 310 299 292 291 295 297 298 290 292 297 303 308 308 306 309
196 210 221 222 240 245 238 235 231 195 162 145 153 129 124 282 204 235 299 333 345 342 14 26 36 40 27 27 17 356 325 303 293 288 290 292 293 295 302 307 307 305 306
200 215 224 244 232 227 233 234 220 216 178 146 153 170 171 125 92 321 21 23 360 24 14 23 19 5 355 5 7 359 336 315 315 303 294 288 300 304 305 307 306 302 302
208 224 238 228 218 221 234 220 210 213 182 165 157 165 105 119 66 63 54 16 27 27 21 21 351 334 358 4 6 10 4 342 319 307 308 284 286 298 295 301 311 312 305
218 238 239 219 216 213 216 222 202 195 194 192 165 148 104 124 106 69 55 24 25 24 15 12 19 1 353 8 13 9 6 355 342 328 307 282 274 286 297 298 299 300 303
227 239 227 215 215 208 204 196 198 158 182 168 171 178 177 157 132 83 76 64 52 45 38 28 23 35 24 13 11 10 6 1 347 336 329 315 295 274 282 286 294 295 291
233 230 211 211 212 211 204 206 197 171 163 197 208 221 231 219 207 171 101 83 59 43 34 26 28 36 29 20 18 13 5 3 359 347 321 305 289 289 289 286 290 294 293
230 212 203 206 206 206 210 201 201 201 174 158 189 199 218 241 202 198 166 44 290 321 9 25 27 18 23 23 14 5 360 355 351 343 331 315 301 291 279 275 282 285 283
214 205 200 205 204 206 204 201 209 208 204 190 157 162 198 207 213 196 181 135 74 306 300 1 26 16 11 6 0 355 352 349 345 339 331 326 322 305 289 282 273 274 278
212 207 201 205 206 207 208 209 216 219 217 206 187 193 203 172 199 213 189 218 280 52 354 317 18 8 353 351 348 345 344 339 340 335 331 330 327 323 313 301 285 277 275
211 209 204 204 207 211 213 217 214 219 224 227 219 209 222 223 242 238 233 276 285 65 32 97 305 323 328 335 337 332 331 338 342 352 357 342 329 332 332 326 310 286 272
207 207 204 205 209 215 213 216 219 219 222 218 212 215 223 236 259 271 303 325 346 173 127 65 166 297 315 317 318 323 331 337 346 347 346 345 336 327 324 325 324 300 278
206 203 204 205 207 212 218 219 218 218 220 214 209 200 195 208 231 298 324 340 313 275 225 259 275 292 316 316 320 320 326 340 333 338 337 337 337 330 326 328 327 314 293
205 200 205 212 215 214 215 217 217 216 215 214 211 200 176 181 95 63 39 13 304 331 313 258 289 289 307 315 317 318 326 324 323 332 333 334 331 331 329 324 322 319 299
213 227 216 215 221 218 220 219 216 214 213 213 212 200 191 188 139 86 55 22 323 304 283 299 308 310 321 324 320 326 326 323 328 328 329 327 331 332 335 333 331 324 304
244 222 226 214 218 221 220 224 221 218 214 214 213 211 204 204 196 172 39 31 360 331 306 313 315 321 329 322 330 336 330 324 322 320 321 325 326 326 330 333 334 324 292
230 232 236 222 223 222 224 223 222 222 218 217 219 215 215 214 215 233 264 348 359 339 316 315 323 326 332 327 331 326 318 319 319 322 326 324 327 327 332 332 336 329 309
230 245 241 233 230 230 228 227 225 226 224 224 222 222 226 225 222 236 260 320 331 333 322 316 323 331 336 328 331 330 327 327 330 329 337 329 326 328 332 338 340 314 297
247 242 244 247 236 236 231 228 228 227 228 230 227 223 224 232 230 238 257 301 312 320 323 318 327 333 335 335 330 330 334 342 344 334 336 335 331 337 342 344 343 321 282
238 240 247 242 243 240 232 231 232 234 243 238 233 229 228 235 234 240 258 279 295 314 320 317 332 336 336 333 331 334 335 336 341 338 335 345 331 339 352 345 344 326 201
237 243 248 241 246 242 238 230 228 230 236 237 235 233 231 236 238 246 254 269 285 311 318 322 332 335 332 332 332 331 331 333 337 342 330 339 333 338 355 347 345 307 178
222 264 247 251 248 243 235 229 224 227 241 235 236 235 235 240 243 246 250 262 280 297 307 319 324 328 327 326 325 320 322 327 327 341 337 337 341 347 351 346 337 323 211
214 208 229 236 219 230 221 230 228 232 239 236 236 238 240 243 247 246 250 261 277 291 298 310 317 321 322 319 318 317 321 320 321 339 344 352 0 357 348 346 330 299 200
239 239 234 228 228 232 223 227 231 236 243 244 239 238 240 242 246 251 253 260 273 288 299 308 314 316 318 320 316 313 316 313 322 329 338 341 348 336 339 343 348 291 200
246 243 242 241 241 241 233 239 239 237 244 241 237 234 238 241 245 249 253 261 271 285 291 300 306 308 311 316 317 319 319 323 325 326 332 317 316 322 334 330 331 341 274
Wind_Speed_850mb
20 13 13 19 12 9 12 12 10 3 4 3 5 5 14 8 3 4 5 9 16 15 17 8 3 3 6 8 11 15 16 17 17 17 18 20 22 24 24 25 26 26 24
23 19 22 21 16 14 18 14 8 8 7 4 8 15 10 3 8 7 4 9 13 14 16 14 13 9 6 6 8 12 13 13 16 17 21 23 25 26 25 26 27 28 26
25 24 29 25 23 24 19 12 7 9 6 5 3 8 4 3 7 4 9 11 15 14 13 13 9 8 9 10 9 11 11 14 15 17 23 24 24 24 25 27 26 30 29
28 33 30 30 27 21 14 8 11 11 13 8 10 9 3 5 5 6 4 9 12 11 20 15 6 6 10 11 11 13 14 15 12 14 20 23 27 24 26 28 28 28 31
37 39 32 28 24 17 12 8 9 12 18 16 9 5 3 6 7 10 15 16 7 10 20 16 12 11 11 16 20 20 19 17 16 17 20 19 22 26 28 26 26 24 28
40 35 33 29 24 16 13 12 10 13 18 12 15 10 10 12 11 18 21 18 16 15 18 16 21 11 14 18 23 24 22 21 22 21 16 13 18 23 29 33 32 30 29
40 36 37 33 26 19 15 12 10 9 22 14 13 10 8 7 7 14 16 21 25 21 30 28 21 19 23 22 25 25 28 29 29 26 24 15 17 27 29 33 37 40 34
42 41 42 34 27 21 18 18 16 12 16 21 19 15 11 17 13 8 11 9 10 17 21 31 33 23 30 29 25 27 33 38 38 36 30 27 26 26 29 38 37 42 42
44 47 44 37 30 24 21 17 17 15 13 11 13 15 8 10 16 15 8 4 4 5 10 19 31 30 28 34 28 30 39 47 52 49 40 33 32 31 33 35 36 37 47
44 50 43 40 33 31 25 19 17 14 13 11 10 11 12 12 11 12 13 5 4 3 6 12 22 28 29 31 35 40 47 56 60 51 47 41 31 28 32 35 37 39 37
41 49 47 43 37 32 28 23 18 16 10 9 8 8 9 10 10 11 19 9 3 7 8 9 19 19 20 28 37 43 52 59 49 47 44 40 38 34 30 30 33 36 40
47 54 53 47 40 37 33 27 22 19 16 11 9 10 11 12 9 9 7 7 8 2 6 7 6 8 16 25 35 48 54 49 46 41 45 38 40 40 37 36 31 34 35
60 63 58 52 45 42 36 34 28 23 20 16 12 9 9 9 9 9 7 6 7 5 7 5 2 10 17 28 41 47 40 39 45 46 47 47 43 43 43 43 40 35 35
63 61 64 61 57 52 45 41 37 29 24 20 18 11 7 4 2 5 6 6 7 6 12 14 15 18 33 39 38 32 35 36 40 48 52 55 53 47 46 48 48 39 34
62 58 57 57 58 57 57 50 45 36 29 26 22 14 10 6 3 8 6 7 9 7 12 11 16 25 28 29 27 31 35 31 34 45 56 63 64 59 57 54 57 52 35
64 62 61 56 68 70 62 57 49 44 37 33 28 20 17 11 6 7 10 6 6 10 15 20 23 25 26 28 27 33 32 39 40 49 57 65 60 58 56 54 51 40 28
59 78 72 69 73 70 68 62 56 51 44 39 35 29 25 19 11 2 3 7 10 13 24 29 26 28 28 32 30 31 32 33 42 53 55 52 50 52 54 52 49 37 18
74 73 78 78 76 74 73 71 66 60 52 45 39 38 33 26 17 12 6 10 16 20 24 28 27 28 29 31 32 32 35 40 45 45 45 47 50 54 55 42 45 27 20
87 81 91 88 77 74 79 78 73 68 59 52 44 37 38 33 27 18 12 12 17 24 29 29 30 29 29 34 34 32 31 33 35 41 39 44 49 54 50 36 38 18 15
99 95 94 96 86 75 76 80 79 72 66 61 56 49 39 42 30 23 17 14 20 26 29 26 29 29 32 36 40 40 36 37 38 39 37 41 40 45 41 33 30 18 9
85 108 91 97 82 81 77 79 80 66 59 73 65 59 46 40 36 29 23 19 23 27 28 27 29 34 35 38 42 44 45 45 43 42 47 35 38 42 40 31 23 15 6
73 105 108 111 93 89 83 74 76 79 85 81 71 64 55 43 40 35 32 26 28 28 29 33 37 40 42 40 41 42 44 49 53 43 51 38 35 38 41 33 26 8 8
53 61 88 86 84 77 80 81 87 97 88 72 76 69 61 51 44 44 40 34 30 29 29 34 41 42 45 42 41 42 43 46 49 46 41 46 31 33 42 34 24 12 16
54 56 80 87 81 101 91 88 84 95 88 67 74 73 64 54 49 51 43 36 35 32 31 36 41 42 44 43 43 46 48 46 42 29 31 36 34 36 44 44 22 9 12
56 67 80 92 89 91 85 89 93 92 78 66 62 69 68 60 53 52 47 41 39 35 36 41 44 46 43 42 44 46 41 39 35 28 25 31 36 36 36 37 16 8 12
56 56 57 64 63 83 89 94 90 89 81 67 61 65 68 65 53 52 50 45 42 37 40 41 42 41 32 30 29 31 27 23 25 36 26 37 36 38 25 18 33 25 16
Wind_Direction_850mb
174 170 199 193 216 275 306 311 324 121 203 123 350 207 224 247 319 103 40 15 342 16 46 43 350 305 287 294 292 292 292 293 294 293 292 295 300 306 311 315 313 315 317
190 200 203 195 213 253 267 261 225 148 147 124 76 141 162 212 261 201 251 313 348 5 37 54 56 46 7 329 310 299 292 291 295 297 298 290 292 297 303 308 308 306 309
196 210 221 222 240 245 238 235 231 195 162 145 153 129 124 282 204 235 299 333 345 342 14 26 36 40 27 27 17 356 325 303 293 288 290 292 293 295 302 307 307 305 306
200 215 224 244 232 227 233 234 220 216 178 146 153 170 171 125 92 321 21 23 360 24 14 23 19 5 355 5 7 359 336 315 315 303 294 288 300 304 305 307 306 302 302
208 224 238 228 218 221 234 220 210 213 182 165 157 165 105 119 66 63 54 16 27 27 21 21 351 334 358 4 6 10 4 342 319 307 308 284 286 298 295 301 311 312 305
218 238 239 219 216 213 216 222 202 195 194 192 165 148 104 124 106 69 55 24 25 24 15 12 19 1 353 8 13 9 6 355 342 328 307 282 274 286 297 298 299 300 303
227 239 227 215 215 208 204 196 198 158 182 168 171 178 177 157 132 83 76 64 52 45 38 28 23 35 24 13 11 10 6 1 347 336 329 315 295 274 282 286 294 295 291
233 230 211 211 212 211 204 206 197 171 163 197 208 221 231 219 207 171 101 83 59 43 34 26 28 36 29 20 18 13 5 3 359 347 321 305 289 289 289 286 290 294 293
230 212 203 206 206 206 210 201 201 201 174 158 189 199 218 241 202 198 166 44 290 321 9 25 27 18 23 23 14 5 360 355 351 343 331 315 301 291 279 275 282 285 283
214 205 200 205 204 206 204 201 209 208 204 190 157 162 198 207 213 196 181 135 74 306 300 1 26 16 11 6 0 355 352 349 345 339 331 326 322 305 289 282 273 274 278
212 207 201 205 206 207 208 209 216 219 217 206 187 193 203 172 199 213 189 218 280 52 354 317 18 8 353 351 348 345 344 339 340 335 331 330 327 323 313 301 285 277 275
211 209 204 204 207 211 213 217 214 219 224 227 219 209 222 223 242 238 233 276 285 65 32 97 305 323 328 335 337 332 331 338 342 352 357 342 329 332 332 326 310 286 272
207 207 204 205 209 215 213 216 219 219 222 218 212 215 223 236 259 271 303 325 346 173 127 65 166 297 315 317 318 323 331 337 346 347 346 345 336 327 324 325 324 300 278
206 203 204 205 207 212 218 219 218 218 220 214 209 200 195 208 231 298 324 340 313 275 225 259 275 292 316 316 320 320 326 340 333 338 337 337 337 330 326 328 327 314 293
205 200 205 212 215 214 215 217 217 216 215 214 211 200 176 181 95 63 39 13 304 331 313 258 289 289 307 315 317 318 326 324 323 332 333 334 331 331 329 324 322 319 299
213 227 216 215 221 218 220 219 216 214 213 213 212 200 191 188 139 86 55 22 323 304 283 299 308 310 321 324 320 326 326 323 328 328 329 327 331 332 335 333 331 324 304
244 222 226 214 218 221 220 224 221 218 214 214 213 211 204 204 196 172 39 31 360 331 306 313 315 321 329 322 330 336 330 324 322 320 321 325 326 326 330 333 334 324 292
230 232 236 222 223 222 224 223 222 222 218 217 219 215 215 214 215 233 264 348 359 339 316 315 323 326 332 327 331 326 318 319 319 322 326 324 327 327 332 332 336 329 309
230 245 241 233 230 230 228 227 225 226 224 224 222 222 226 225 222 236 260 320 331 333 322 316 323 331 336 328 331 330 327 327 330 329 337 329 326 328 332 338 340 314 297
247 242 244 247 236 236 231 228 228 227 228 230 227 223 224 232 230 238 257 301 312 320 323 318 327 333 335 335 330 330 334 342 344 334 336 335 331 337 342 344 343 321 282
238 240 247 242 243 240 232 231 232 234 243 238 233 229 228 235 234 240 258 279 295 314 320 317 332 336 336 333 331 334 335 336 341 338 335 345 331 339 352 345 344 326 201
237 243 248 241 246 242 238 230 228 230 236 237 235 233 231 236 238 246 254 269 285 311 318 322 332 335 332 332 332 331 331 333 337 342 330 339 333 338 355 347 345 307 178
222 264 247 251 248 243 235 229 224 227 241 235 236 235 235 240 243 246 250 262 280 297 307 319 324 328 327 326 325 320 322 327 327 341 337 337 341 347 351 346 337 323 211
214 208 229 236 219 230 221 230 228 232 239 236 236 238 240 243 247 246 250 261 277 291 298 310 317 321 322 319 318 317 321 320 321 339 344 352 0 357 348 346 330 299 200
239 239 234 228 228 232 223 227 231 236 243 244 239 238 240 242 246 251 253 260 273 288 299 308 314 316 318 320 316 313 316 313 322 329 338 341 348 336 339 343 348 291 200
246 243 242 241 241 241 233 239 239 237 244 241 237 234 238 241 245 249 253 261 271 285 291 300 306 308 311 316 317 319 319 323 325 326 332 317 316 322 334 330 331 341 274